Year,Month,Day,Hour,Minute,Value (Times are PST for temperature in C)
2021,04,17,00,00,9.10
2021,04,17,00,01,9.10
2021,04,17,00,02,9.10
2021,04,17,00,03,9.20
2021,04,17,00,04,9.20
2021,04,17,00,05,9.20
2021,04,17,00,06,9.20
2021,04,17,00,07,9.20
2021,04,17,00,08,9.30
2021,04,17,00,09,9.30
2021,04,17,00,10,9.30
2021,04,17,00,11,9.30
2021,04,17,00,12,9.20
2021,04,17,00,13,9.20
2021,04,17,00,14,9.20
2021,04,17,00,15,9.20
2021,04,17,00,16,9.20
2021,04,17,00,17,9.10
2021,04,17,00,18,9.10
2021,04,17,00,19,9.10
2021,04,17,00,20,9.10
2021,04,17,00,21,9.00
2021,04,17,00,22,9.00
2021,04,17,00,23,8.90
2021,04,17,00,24,8.90
2021,04,17,00,25,8.80
2021,04,17,00,26,8.80
2021,04,17,00,27,8.70
2021,04,17,00,28,8.70
2021,04,17,00,29,8.60
2021,04,17,00,30,8.60
2021,04,17,00,31,8.50
2021,04,17,00,32,8.50
2021,04,17,00,33,8.40
2021,04,17,00,34,8.40
2021,04,17,00,35,8.30
2021,04,17,00,36,8.30
2021,04,17,00,37,8.30
2021,04,17,00,38,8.20
2021,04,17,00,39,8.20
2021,04,17,00,40,8.20
2021,04,17,00,41,8.20
2021,04,17,00,42,8.20
2021,04,17,00,43,8.20
2021,04,17,00,44,8.20
2021,04,17,00,45,8.20
2021,04,17,00,46,8.20
2021,04,17,00,47,8.20
2021,04,17,00,48,8.30
2021,04,17,00,49,8.30
2021,04,17,00,50,8.30
2021,04,17,00,51,8.40
2021,04,17,00,52,8.40
2021,04,17,00,53,8.50
2021,04,17,00,54,8.50
2021,04,17,00,55,8.60
2021,04,17,00,56,8.60
2021,04,17,00,57,8.60
2021,04,17,00,58,8.60
2021,04,17,00,59,8.60
2021,04,17,01,00,8.60
2021,04,17,01,01,8.60
2021,04,17,01,02,8.60
2021,04,17,01,03,8.60
2021,04,17,01,04,8.60
2021,04,17,01,05,8.60
2021,04,17,01,06,8.60
2021,04,17,01,07,8.60
2021,04,17,01,08,8.60
2021,04,17,01,09,8.60
2021,04,17,01,10,8.70
2021,04,17,01,11,8.60
2021,04,17,01,12,8.60
2021,04,17,01,13,8.60
2021,04,17,01,14,8.60
2021,04,17,01,15,8.60
2021,04,17,01,16,8.60
2021,04,17,01,17,8.60
2021,04,17,01,18,8.60
2021,04,17,01,19,8.60
2021,04,17,01,20,8.50
2021,04,17,01,21,8.50
2021,04,17,01,22,8.50
2021,04,17,01,23,8.40
2021,04,17,01,24,8.40
2021,04,17,01,25,8.40
2021,04,17,01,26,8.40
2021,04,17,01,27,8.30
2021,04,17,01,28,8.30
2021,04,17,01,29,8.30
2021,04,17,01,30,8.20
2021,04,17,01,31,8.20
2021,04,17,01,32,8.20
2021,04,17,01,33,8.10
2021,04,17,01,34,8.10
2021,04,17,01,35,8.10
2021,04,17,01,36,8.00
2021,04,17,01,37,8.00
2021,04,17,01,38,7.90
2021,04,17,01,39,7.90
2021,04,17,01,40,7.90
2021,04,17,01,41,7.90
2021,04,17,01,42,7.90
2021,04,17,01,43,7.90
2021,04,17,01,44,7.90
2021,04,17,01,45,7.90
2021,04,17,01,46,7.90
2021,04,17,01,47,7.90
2021,04,17,01,48,7.90
2021,04,17,01,49,7.90
2021,04,17,01,50,8.00
2021,04,17,01,51,8.00
2021,04,17,01,52,8.10
2021,04,17,01,53,8.10
2021,04,17,01,54,8.10
2021,04,17,01,55,8.20
2021,04,17,01,56,8.20
2021,04,17,01,57,8.20
2021,04,17,01,58,8.20
2021,04,17,01,59,8.20
2021,04,17,02,00,8.20
2021,04,17,02,01,8.20
2021,04,17,02,02,8.10
2021,04,17,02,03,8.10
2021,04,17,02,04,8.10
2021,04,17,02,05,8.10
2021,04,17,02,06,8.10
2021,04,17,02,07,8.10
2021,04,17,02,08,8.10
2021,04,17,02,09,8.10
2021,04,17,02,10,8.10
2021,04,17,02,11,8.10
2021,04,17,02,12,8.10
2021,04,17,02,13,8.10
2021,04,17,02,14,8.00
2021,04,17,02,15,8.00
2021,04,17,02,16,8.00
2021,04,17,02,17,7.90
2021,04,17,02,18,7.90
2021,04,17,02,19,7.90
2021,04,17,02,20,7.90
2021,04,17,02,21,7.80
2021,04,17,02,22,7.80
2021,04,17,02,23,7.80
2021,04,17,02,24,7.80
2021,04,17,02,25,7.80
2021,04,17,02,26,7.90
2021,04,17,02,27,7.90
2021,04,17,02,28,7.90
2021,04,17,02,29,7.90
2021,04,17,02,30,7.90
2021,04,17,02,31,7.90
2021,04,17,02,32,7.90
2021,04,17,02,33,7.90
2021,04,17,02,34,7.90
2021,04,17,02,35,7.90
2021,04,17,02,36,7.80
2021,04,17,02,37,7.80
2021,04,17,02,38,7.80
2021,04,17,02,39,7.80
2021,04,17,02,40,7.80
2021,04,17,02,41,7.80
2021,04,17,02,42,7.80
2021,04,17,02,43,7.80
2021,04,17,02,44,7.80
2021,04,17,02,45,7.80
2021,04,17,02,46,7.90
2021,04,17,02,47,7.90
2021,04,17,02,48,7.90
2021,04,17,02,49,7.90
2021,04,17,02,50,7.80
2021,04,17,02,51,7.80
2021,04,17,02,52,7.80
2021,04,17,02,53,7.80
2021,04,17,02,54,7.80
2021,04,17,02,55,7.80
2021,04,17,02,56,7.80
2021,04,17,02,57,7.80
2021,04,17,02,58,7.80
2021,04,17,02,59,7.80
2021,04,17,03,00,7.70
2021,04,17,03,01,7.70
2021,04,17,03,02,7.70
2021,04,17,03,03,7.70
2021,04,17,03,04,7.70
2021,04,17,03,05,7.70
2021,04,17,03,06,7.70
2021,04,17,03,07,7.70
2021,04,17,03,08,7.70
2021,04,17,03,09,7.70
2021,04,17,03,10,7.60
2021,04,17,03,11,7.60
2021,04,17,03,12,7.60
2021,04,17,03,13,7.60
2021,04,17,03,14,7.60
2021,04,17,03,15,7.50
2021,04,17,03,16,7.50
2021,04,17,03,17,7.50
2021,04,17,03,18,7.50
2021,04,17,03,19,7.50
2021,04,17,03,20,7.50
2021,04,17,03,21,7.50
2021,04,17,03,22,7.50
2021,04,17,03,23,7.60
2021,04,17,03,24,7.60
2021,04,17,03,25,7.60
2021,04,17,03,26,7.60
2021,04,17,03,27,7.60
2021,04,17,03,28,7.60
2021,04,17,03,29,7.60
2021,04,17,03,30,7.60
2021,04,17,03,31,7.60
2021,04,17,03,32,7.60
2021,04,17,03,33,7.60
2021,04,17,03,34,7.60
2021,04,17,03,35,7.60
2021,04,17,03,36,7.50
2021,04,17,03,37,7.50
2021,04,17,03,38,7.50
2021,04,17,03,39,7.40
2021,04,17,03,40,7.40
2021,04,17,03,41,7.40
2021,04,17,03,42,7.30
2021,04,17,03,43,7.30
2021,04,17,03,44,7.30
2021,04,17,03,45,7.30
2021,04,17,03,46,7.30
2021,04,17,03,47,7.30
2021,04,17,03,48,7.20
2021,04,17,03,49,7.20
2021,04,17,03,50,7.20
2021,04,17,03,51,7.20
2021,04,17,03,52,7.20
2021,04,17,03,53,7.10
2021,04,17,03,54,7.10
2021,04,17,03,55,7.10
2021,04,17,03,56,7.10
2021,04,17,03,57,7.10
2021,04,17,03,58,7.10
2021,04,17,03,59,7.10
2021,04,17,04,00,7.00
2021,04,17,04,01,7.00
2021,04,17,04,02,7.00
2021,04,17,04,03,7.00
2021,04,17,04,04,6.90
2021,04,17,04,05,6.90
2021,04,17,04,06,6.90
2021,04,17,04,07,6.90
2021,04,17,04,08,6.90
2021,04,17,04,09,6.90
2021,04,17,04,10,6.90
2021,04,17,04,11,6.90
2021,04,17,04,12,6.90
2021,04,17,04,13,6.90
2021,04,17,04,14,6.90
2021,04,17,04,15,6.80
2021,04,17,04,16,6.80
2021,04,17,04,17,6.80
2021,04,17,04,18,6.80
2021,04,17,04,19,6.80
2021,04,17,04,20,6.80
2021,04,17,04,21,6.80
2021,04,17,04,22,6.80
2021,04,17,04,23,6.80
2021,04,17,04,24,6.80
2021,04,17,04,25,6.80
2021,04,17,04,26,6.80
2021,04,17,04,27,6.80
2021,04,17,04,28,6.70
2021,04,17,04,29,6.80
2021,04,17,04,30,6.70
2021,04,17,04,31,6.70
2021,04,17,04,32,6.70
2021,04,17,04,33,6.70
2021,04,17,04,34,6.70
2021,04,17,04,35,6.70
2021,04,17,04,36,6.70
2021,04,17,04,37,6.80
2021,04,17,04,38,6.70
2021,04,17,04,39,6.70
2021,04,17,04,40,6.80
2021,04,17,04,41,6.70
2021,04,17,04,42,6.70
2021,04,17,04,43,6.70
2021,04,17,04,44,6.70
2021,04,17,04,45,6.70
2021,04,17,04,46,6.70
2021,04,17,04,47,6.70
2021,04,17,04,48,6.70
2021,04,17,04,49,6.70
2021,04,17,04,50,6.70
2021,04,17,04,51,6.70
2021,04,17,04,52,6.60
2021,04,17,04,53,6.60
2021,04,17,04,54,6.60
2021,04,17,04,55,6.60
2021,04,17,04,56,6.60
2021,04,17,04,57,6.60
2021,04,17,04,58,6.50
2021,04,17,04,59,6.50
2021,04,17,05,00,6.50
2021,04,17,05,01,6.50
2021,04,17,05,02,6.50
2021,04,17,05,03,6.50
2021,04,17,05,04,6.50
2021,04,17,05,05,6.50
2021,04,17,05,06,6.50
2021,04,17,05,07,6.60
2021,04,17,05,08,6.50
2021,04,17,05,09,6.60
2021,04,17,05,10,6.50
2021,04,17,05,11,6.50
2021,04,17,05,12,6.50
2021,04,17,05,13,6.50
2021,04,17,05,14,6.50
2021,04,17,05,15,6.50
2021,04,17,05,16,6.50
2021,04,17,05,17,6.50
2021,04,17,05,18,6.50
2021,04,17,05,19,6.50
2021,04,17,05,20,6.50
2021,04,17,05,21,6.40
2021,04,17,05,22,6.40
2021,04,17,05,23,6.40
2021,04,17,05,24,6.40
2021,04,17,05,25,6.40
2021,04,17,05,26,6.40
2021,04,17,05,27,6.40
2021,04,17,05,28,6.40
2021,04,17,05,29,6.40
2021,04,17,05,30,6.40
2021,04,17,05,31,6.30
2021,04,17,05,32,6.30
2021,04,17,05,33,6.30
2021,04,17,05,34,6.30
2021,04,17,05,35,6.30
2021,04,17,05,36,6.30
2021,04,17,05,37,6.30
2021,04,17,05,38,6.30
2021,04,17,05,39,6.30
2021,04,17,05,40,6.20
2021,04,17,05,41,6.20
2021,04,17,05,42,6.20
2021,04,17,05,43,6.20
2021,04,17,05,44,6.30
2021,04,17,05,45,6.30
2021,04,17,05,46,6.30
2021,04,17,05,47,6.30
2021,04,17,05,48,6.30
2021,04,17,05,49,6.30
2021,04,17,05,50,6.30
2021,04,17,05,51,6.30
2021,04,17,05,52,6.30
2021,04,17,05,53,6.30
2021,04,17,05,54,6.30
2021,04,17,05,55,6.30
2021,04,17,05,56,6.30
2021,04,17,05,57,6.20
2021,04,17,05,58,6.20
2021,04,17,05,59,6.20
2021,04,17,06,00,6.20
2021,04,17,06,01,6.20
2021,04,17,06,02,6.20
2021,04,17,06,03,6.20
2021,04,17,06,04,6.20
2021,04,17,06,05,6.10
2021,04,17,06,06,6.10
2021,04,17,06,07,6.10
2021,04,17,06,08,6.10
2021,04,17,06,09,6.10
2021,04,17,06,10,6.00
2021,04,17,06,11,6.00
2021,04,17,06,12,5.90
2021,04,17,06,13,5.90
2021,04,17,06,14,5.90
2021,04,17,06,15,5.90
2021,04,17,06,16,5.80
2021,04,17,06,17,5.80
2021,04,17,06,18,5.80
2021,04,17,06,19,5.80
2021,04,17,06,20,5.80
2021,04,17,06,21,5.80
2021,04,17,06,22,5.80
2021,04,17,06,23,5.80
2021,04,17,06,24,5.80
2021,04,17,06,25,5.80
2021,04,17,06,26,5.80
2021,04,17,06,27,5.80
2021,04,17,06,28,5.70
2021,04,17,06,29,5.70
2021,04,17,06,30,5.70
2021,04,17,06,31,5.70
2021,04,17,06,32,5.70
2021,04,17,06,33,5.80
2021,04,17,06,34,5.80
2021,04,17,06,35,5.70
2021,04,17,06,36,5.70
2021,04,17,06,37,5.70
2021,04,17,06,38,5.70
2021,04,17,06,39,5.70
2021,04,17,06,40,5.70
2021,04,17,06,41,5.70
2021,04,17,06,42,5.70
2021,04,17,06,43,5.70
2021,04,17,06,44,5.70
2021,04,17,06,45,5.60
2021,04,17,06,46,5.60
2021,04,17,06,47,5.60
2021,04,17,06,48,5.60
2021,04,17,06,49,5.60
2021,04,17,06,50,5.60
2021,04,17,06,51,5.60
2021,04,17,06,52,5.60
2021,04,17,06,53,5.50
2021,04,17,06,54,5.50
2021,04,17,06,55,5.40
2021,04,17,06,56,5.40
2021,04,17,06,57,5.40
2021,04,17,06,58,5.40
2021,04,17,06,59,5.40
2021,04,17,07,00,5.40
2021,04,17,07,01,5.30
2021,04,17,07,02,5.30
2021,04,17,07,03,5.30
2021,04,17,07,04,5.30
2021,04,17,07,05,5.30
2021,04,17,07,06,5.30
2021,04,17,07,07,5.30
2021,04,17,07,08,5.30
2021,04,17,07,09,5.30
2021,04,17,07,10,5.40
2021,04,17,07,11,5.40
2021,04,17,07,12,5.40
2021,04,17,07,13,5.40
2021,04,17,07,14,5.40
2021,04,17,07,15,5.50
2021,04,17,07,16,5.50
2021,04,17,07,17,5.50
2021,04,17,07,18,5.60
2021,04,17,07,19,5.60
2021,04,17,07,20,5.60
2021,04,17,07,21,5.60
2021,04,17,07,22,5.60
2021,04,17,07,23,5.70
2021,04,17,07,24,5.70
2021,04,17,07,25,5.70
2021,04,17,07,26,5.70
2021,04,17,07,27,5.70
2021,04,17,07,28,5.80
2021,04,17,07,29,5.80
2021,04,17,07,30,5.90
2021,04,17,07,31,5.90
2021,04,17,07,32,5.90
2021,04,17,07,33,6.00
2021,04,17,07,34,6.00
2021,04,17,07,35,6.10
2021,04,17,07,36,6.10
2021,04,17,07,37,6.10
2021,04,17,07,38,6.20
2021,04,17,07,39,6.20
2021,04,17,07,40,6.20
2021,04,17,07,41,6.20
2021,04,17,07,42,6.20
2021,04,17,07,43,6.20
2021,04,17,07,44,6.20
2021,04,17,07,45,6.20
2021,04,17,07,46,6.20
2021,04,17,07,47,6.20
2021,04,17,07,48,6.30
2021,04,17,07,49,6.30
2021,04,17,07,50,6.30
2021,04,17,07,51,6.30
2021,04,17,07,52,6.40
2021,04,17,07,53,6.40
2021,04,17,07,54,6.40
2021,04,17,07,55,6.50
2021,04,17,07,56,6.50
2021,04,17,07,57,6.50
2021,04,17,07,58,6.60
2021,04,17,07,59,6.60
2021,04,17,08,00,6.60
2021,04,17,08,01,6.60
2021,04,17,08,02,6.70
2021,04,17,08,03,6.70
2021,04,17,08,04,6.70
2021,04,17,08,05,6.70
2021,04,17,08,06,6.70
2021,04,17,08,07,6.80
2021,04,17,08,08,6.80
2021,04,17,08,09,6.80
2021,04,17,08,10,6.90
2021,04,17,08,11,6.90
2021,04,17,08,12,7.00
2021,04,17,08,13,7.00
2021,04,17,08,14,7.10
2021,04,17,08,15,7.10
2021,04,17,08,16,7.10
2021,04,17,08,17,7.20
2021,04,17,08,18,7.20
2021,04,17,08,19,7.30
2021,04,17,08,20,7.30
2021,04,17,08,21,7.40
2021,04,17,08,22,7.50
2021,04,17,08,23,7.50
2021,04,17,08,24,7.60
2021,04,17,08,25,7.60
2021,04,17,08,26,7.60
2021,04,17,08,27,7.70
2021,04,17,08,28,7.70
2021,04,17,08,29,7.70
2021,04,17,08,30,7.80
2021,04,17,08,31,7.80
2021,04,17,08,32,7.80
2021,04,17,08,33,7.80
2021,04,17,08,34,7.90
2021,04,17,08,35,7.90
2021,04,17,08,36,8.00
2021,04,17,08,37,8.00
2021,04,17,08,38,8.10
2021,04,17,08,39,8.10
2021,04,17,08,40,8.10
2021,04,17,08,41,8.20
2021,04,17,08,42,8.20
2021,04,17,08,43,8.30
2021,04,17,08,44,8.30
2021,04,17,08,45,8.50
2021,04,17,08,46,8.60
2021,04,17,08,47,8.70
2021,04,17,08,48,8.80
2021,04,17,08,49,8.80
2021,04,17,08,50,8.90
2021,04,17,08,51,9.00
2021,04,17,08,52,9.10
2021,04,17,08,53,9.10
2021,04,17,08,54,9.10
2021,04,17,08,55,9.20
2021,04,17,08,56,9.20
2021,04,17,08,57,9.30
2021,04,17,08,58,9.30
2021,04,17,08,59,9.30
2021,04,17,09,00,9.30
2021,04,17,09,01,9.30
2021,04,17,09,02,9.30
2021,04,17,09,03,9.40
2021,04,17,09,04,9.40
2021,04,17,09,05,9.50
2021,04,17,09,06,9.50
2021,04,17,09,07,9.60
2021,04,17,09,08,9.70
2021,04,17,09,09,9.70
2021,04,17,09,10,9.80
2021,04,17,09,11,9.90
2021,04,17,09,12,9.90
2021,04,17,09,13,10.00
2021,04,17,09,14,10.10
2021,04,17,09,15,10.20
2021,04,17,09,16,10.20
2021,04,17,09,17,10.30
2021,04,17,09,18,10.40
2021,04,17,09,19,10.50
2021,04,17,09,20,10.60
2021,04,17,09,21,10.60
2021,04,17,09,22,10.70
2021,04,17,09,23,10.70
2021,04,17,09,24,10.90
2021,04,17,09,25,10.90
2021,04,17,09,26,11.00
2021,04,17,09,27,11.10
2021,04,17,09,28,11.10
2021,04,17,09,29,11.20
2021,04,17,09,30,11.20
2021,04,17,09,31,11.30
2021,04,17,09,32,11.40
2021,04,17,09,33,11.40
2021,04,17,09,34,11.50
2021,04,17,09,35,11.60
2021,04,17,09,36,11.70
2021,04,17,09,37,11.70
2021,04,17,09,38,11.80
2021,04,17,09,39,11.80
2021,04,17,09,40,11.90
2021,04,17,09,41,11.90
2021,04,17,09,42,12.10
2021,04,17,09,43,12.20
2021,04,17,09,44,12.20
2021,04,17,09,45,12.30
2021,04,17,09,46,12.40
2021,04,17,09,47,12.60
2021,04,17,09,48,12.60
2021,04,17,09,49,12.70
2021,04,17,09,50,12.80
2021,04,17,09,51,12.80
2021,04,17,09,52,12.90
2021,04,17,09,53,12.90
2021,04,17,09,54,13.00
2021,04,17,09,55,13.00
2021,04,17,09,56,13.10
2021,04,17,09,57,13.10
2021,04,17,09,58,13.10
2021,04,17,09,59,13.20
2021,04,17,10,00,13.20
2021,04,17,10,01,13.20
2021,04,17,10,02,13.20
2021,04,17,10,03,13.30
2021,04,17,10,04,13.40
2021,04,17,10,05,13.50
2021,04,17,10,06,13.50
2021,04,17,10,07,13.50
2021,04,17,10,08,13.60
2021,04,17,10,09,13.60
2021,04,17,10,10,13.60
2021,04,17,10,11,13.70
2021,04,17,10,12,13.80
2021,04,17,10,13,13.90
2021,04,17,10,14,14.00
2021,04,17,10,15,14.10
2021,04,17,10,16,14.20
2021,04,17,10,17,14.30
2021,04,17,10,18,14.50
2021,04,17,10,19,14.60
2021,04,17,10,20,14.70
2021,04,17,10,21,14.70
2021,04,17,10,22,14.90
2021,04,17,10,23,15.00
2021,04,17,10,24,15.20
2021,04,17,10,25,15.30
2021,04,17,10,26,15.40
2021,04,17,10,27,15.40
2021,04,17,10,28,15.50
2021,04,17,10,29,15.60
2021,04,17,10,30,15.60
2021,04,17,10,31,15.60
2021,04,17,10,32,15.60
2021,04,17,10,33,15.60
2021,04,17,10,34,15.70
2021,04,17,10,35,15.70
2021,04,17,10,36,15.70
2021,04,17,10,37,15.70
2021,04,17,10,38,15.70
2021,04,17,10,39,15.80
2021,04,17,10,40,15.80
2021,04,17,10,41,15.80
2021,04,17,10,42,15.80
2021,04,17,10,43,15.80
2021,04,17,10,44,15.80
2021,04,17,10,45,15.80
2021,04,17,10,46,15.80
2021,04,17,10,47,15.80
2021,04,17,10,48,15.80
2021,04,17,10,49,15.80
2021,04,17,10,50,15.70
2021,04,17,10,51,15.60
2021,04,17,10,52,15.60
2021,04,17,10,53,15.50
2021,04,17,10,54,15.40
2021,04,17,10,55,15.40
2021,04,17,10,56,15.40
2021,04,17,10,57,15.40
2021,04,17,10,58,15.40
2021,04,17,10,59,15.50
2021,04,17,11,00,15.50
2021,04,17,11,01,15.60
2021,04,17,11,02,15.60
2021,04,17,11,03,15.60
2021,04,17,11,04,15.60
2021,04,17,11,05,15.50
2021,04,17,11,06,15.50
2021,04,17,11,07,15.40
2021,04,17,11,08,15.40
2021,04,17,11,09,15.40
2021,04,17,11,10,15.40
2021,04,17,11,11,15.40
2021,04,17,11,12,15.40
2021,04,17,11,13,15.30
2021,04,17,11,14,15.30
2021,04,17,11,15,15.30
2021,04,17,11,16,15.30
2021,04,17,11,17,15.40
2021,04,17,11,18,15.50
2021,04,17,11,19,15.50
2021,04,17,11,20,15.50
2021,04,17,11,21,15.50
2021,04,17,11,22,15.40
2021,04,17,11,23,15.40
2021,04,17,11,24,15.40
2021,04,17,11,25,15.40
2021,04,17,11,26,15.40
2021,04,17,11,27,15.40
2021,04,17,11,28,15.40
2021,04,17,11,29,15.40
2021,04,17,11,30,15.40
2021,04,17,11,31,15.40
2021,04,17,11,32,15.50
2021,04,17,11,33,15.50
2021,04,17,11,34,15.50
2021,04,17,11,35,15.60
2021,04,17,11,36,15.60
2021,04,17,11,37,15.60
2021,04,17,11,38,15.60
2021,04,17,11,39,15.60
2021,04,17,11,40,15.70
2021,04,17,11,41,15.70
2021,04,17,11,42,15.70
2021,04,17,11,43,15.70
2021,04,17,11,44,15.70
2021,04,17,11,45,15.70
2021,04,17,11,46,15.70
2021,04,17,11,47,15.70
2021,04,17,11,48,15.70
2021,04,17,11,49,15.70
2021,04,17,11,50,15.80
2021,04,17,11,51,15.80
2021,04,17,11,52,15.80
2021,04,17,11,53,15.80
2021,04,17,11,54,15.80
2021,04,17,11,55,15.80
2021,04,17,11,56,15.90
2021,04,17,11,57,15.90
2021,04,17,11,58,16.00
2021,04,17,11,59,16.00
2021,04,17,12,00,16.00
2021,04,17,12,01,16.00
2021,04,17,12,02,16.10
2021,04,17,12,03,16.20
2021,04,17,12,04,16.20
2021,04,17,12,05,16.30
2021,04,17,12,06,16.40
2021,04,17,12,07,16.40
2021,04,17,12,08,16.50
2021,04,17,12,09,16.60
2021,04,17,12,10,16.70
2021,04,17,12,11,16.80
2021,04,17,12,12,16.80
2021,04,17,12,13,16.90
2021,04,17,12,14,16.90
2021,04,17,12,15,17.00
2021,04,17,12,16,17.00
2021,04,17,12,17,17.10
2021,04,17,12,18,17.20
2021,04,17,12,19,17.20
2021,04,17,12,20,17.30
2021,04,17,12,21,17.30
2021,04,17,12,22,17.40
2021,04,17,12,23,17.40
2021,04,17,12,24,17.30
2021,04,17,12,25,17.30
2021,04,17,12,26,17.30
2021,04,17,12,27,17.30
2021,04,17,12,28,17.30
2021,04,17,12,29,17.40
2021,04,17,12,30,17.40
2021,04,17,12,31,17.50
2021,04,17,12,32,17.50
2021,04,17,12,33,17.50
2021,04,17,12,34,17.50
2021,04,17,12,35,17.50
2021,04,17,12,36,17.40
2021,04,17,12,37,17.50
2021,04,17,12,38,17.50
2021,04,17,12,39,17.60
2021,04,17,12,40,17.60
2021,04,17,12,41,17.70
2021,04,17,12,42,17.70
2021,04,17,12,43,17.70
2021,04,17,12,44,17.70
2021,04,17,12,45,17.70
2021,04,17,12,46,17.80
2021,04,17,12,47,17.80
2021,04,17,12,48,17.80
2021,04,17,12,49,17.80
2021,04,17,12,50,17.90
2021,04,17,12,51,17.90
2021,04,17,12,52,17.90
2021,04,17,12,53,17.90
2021,04,17,12,54,17.90
2021,04,17,12,55,17.90
2021,04,17,12,56,18.00
2021,04,17,12,57,18.10
2021,04,17,12,58,18.20
2021,04,17,12,59,18.20
2021,04,17,13,00,18.30
2021,04,17,13,01,18.40
2021,04,17,13,02,18.50
2021,04,17,13,03,18.60
2021,04,17,13,04,18.50
2021,04,17,13,05,18.50
2021,04,17,13,06,18.40
2021,04,17,13,07,18.40
2021,04,17,13,08,18.30
2021,04,17,13,09,18.30
2021,04,17,13,10,18.30
2021,04,17,13,11,18.40
2021,04,17,13,12,18.40
2021,04,17,13,13,18.40
2021,04,17,13,14,18.50
2021,04,17,13,15,18.50
2021,04,17,13,16,18.50
2021,04,17,13,17,18.60
2021,04,17,13,18,18.70
2021,04,17,13,19,18.70
2021,04,17,13,20,18.80
2021,04,17,13,21,18.80
2021,04,17,13,22,18.80
2021,04,17,13,23,18.90
2021,04,17,13,24,19.00
2021,04,17,13,25,19.10
2021,04,17,13,26,19.20
2021,04,17,13,27,19.20
2021,04,17,13,28,19.20
2021,04,17,13,29,19.30
2021,04,17,13,30,19.30
2021,04,17,13,31,19.30
2021,04,17,13,32,19.40
2021,04,17,13,33,19.40
2021,04,17,13,34,19.50
2021,04,17,13,35,19.50
2021,04,17,13,36,19.60
2021,04,17,13,37,19.60
2021,04,17,13,38,19.60
2021,04,17,13,39,19.60
2021,04,17,13,40,19.70
2021,04,17,13,41,19.70
2021,04,17,13,42,19.70
2021,04,17,13,43,19.70
2021,04,17,13,44,19.70
2021,04,17,13,45,19.80
2021,04,17,13,46,19.80
2021,04,17,13,47,19.80
2021,04,17,13,48,19.90
2021,04,17,13,49,19.90
2021,04,17,13,50,19.90
2021,04,17,13,51,19.90
2021,04,17,13,52,19.90
2021,04,17,13,53,19.90
2021,04,17,13,54,19.90
2021,04,17,13,55,20.00
2021,04,17,13,56,20.00
2021,04,17,13,57,20.10
2021,04,17,13,58,20.20
2021,04,17,13,59,20.30
2021,04,17,14,00,20.30
2021,04,17,14,01,20.30
2021,04,17,14,02,20.40
2021,04,17,14,03,20.40
2021,04,17,14,04,20.40
2021,04,17,14,05,20.40
2021,04,17,14,06,20.30
2021,04,17,14,07,20.30
2021,04,17,14,08,20.40
2021,04,17,14,09,20.40
2021,04,17,14,10,20.50
2021,04,17,14,11,20.60
2021,04,17,14,12,20.70
2021,04,17,14,13,20.80
2021,04,17,14,14,20.90
2021,04,17,14,15,21.10
2021,04,17,14,16,21.20
2021,04,17,14,17,21.30
2021,04,17,14,18,21.40
2021,04,17,14,19,21.50
2021,04,17,14,20,21.60
2021,04,17,14,21,21.70
2021,04,17,14,22,21.80
2021,04,17,14,23,21.90
2021,04,17,14,24,22.00
2021,04,17,14,25,22.10
2021,04,17,14,26,22.10
2021,04,17,14,27,22.10
2021,04,17,14,28,22.10
2021,04,17,14,29,22.10
2021,04,17,14,30,22.10
2021,04,17,14,31,22.20
2021,04,17,14,32,22.20
2021,04,17,14,33,22.20
2021,04,17,14,34,22.20
2021,04,17,14,35,22.20
2021,04,17,14,36,22.20
2021,04,17,14,37,22.20
2021,04,17,14,38,22.30
2021,04,17,14,39,22.30
2021,04,17,14,40,22.30
2021,04,17,14,41,22.40
2021,04,17,14,42,22.40
2021,04,17,14,43,22.50
2021,04,17,14,44,22.60
2021,04,17,14,45,22.60
2021,04,17,14,46,22.60
2021,04,17,14,47,22.60
2021,04,17,14,48,22.70
2021,04,17,14,49,22.70
2021,04,17,14,50,22.70
2021,04,17,14,51,22.70
2021,04,17,14,52,22.70
2021,04,17,14,53,22.70
2021,04,17,14,54,22.70
2021,04,17,14,55,22.80
2021,04,17,14,56,22.70
2021,04,17,14,57,22.70
2021,04,17,14,58,22.70
2021,04,17,14,59,22.70
2021,04,17,15,00,22.70
2021,04,17,15,01,22.80
2021,04,17,15,02,22.80
2021,04,17,15,03,22.80
2021,04,17,15,04,22.80
2021,04,17,15,05,22.80
2021,04,17,15,06,22.80
2021,04,17,15,07,22.80
2021,04,17,15,08,22.80
2021,04,17,15,09,22.80
2021,04,17,15,10,22.90
2021,04,17,15,11,22.90
2021,04,17,15,12,22.90
2021,04,17,15,13,22.90
2021,04,17,15,14,22.90
2021,04,17,15,15,23.00
2021,04,17,15,16,23.00
2021,04,17,15,17,23.10
2021,04,17,15,18,23.20
2021,04,17,15,19,23.30
2021,04,17,15,20,23.40
2021,04,17,15,21,23.50
2021,04,17,15,22,23.50
2021,04,17,15,23,23.60
2021,04,17,15,24,23.70
2021,04,17,15,25,23.70
2021,04,17,15,26,23.90
2021,04,17,15,27,24.00
2021,04,17,15,28,24.10
2021,04,17,15,29,24.10
2021,04,17,15,30,24.10
2021,04,17,15,31,24.10
2021,04,17,15,32,24.10
2021,04,17,15,33,24.10
2021,04,17,15,34,24.10
2021,04,17,15,35,24.00
2021,04,17,15,36,24.00
2021,04,17,15,37,24.00
2021,04,17,15,38,24.00
2021,04,17,15,39,24.00
2021,04,17,15,40,24.00
2021,04,17,15,41,24.10
2021,04,17,15,42,24.10
2021,04,17,15,43,24.10
2021,04,17,15,44,24.10
2021,04,17,15,45,24.10
2021,04,17,15,46,24.10
2021,04,17,15,47,24.00
2021,04,17,15,48,23.90
2021,04,17,15,49,24.00
2021,04,17,15,50,24.00
2021,04,17,15,51,24.00
2021,04,17,15,52,24.10
2021,04,17,15,53,24.10
2021,04,17,15,54,24.10
2021,04,17,15,55,24.10
2021,04,17,15,56,24.10
2021,04,17,15,57,24.10
2021,04,17,15,58,24.10
2021,04,17,15,59,24.10
2021,04,17,16,00,24.10
2021,04,17,16,01,24.10
2021,04,17,16,02,24.10
2021,04,17,16,03,24.00
2021,04,17,16,04,23.90
2021,04,17,16,05,23.90
2021,04,17,16,06,23.80
2021,04,17,16,07,23.80
2021,04,17,16,08,23.80
2021,04,17,16,09,23.90
2021,04,17,16,10,23.90
2021,04,17,16,11,24.00
2021,04,17,16,12,24.00
2021,04,17,16,13,24.10
2021,04,17,16,14,24.10
2021,04,17,16,15,24.10
2021,04,17,16,16,24.20
2021,04,17,16,17,24.20
2021,04,17,16,18,24.20
2021,04,17,16,19,24.20
2021,04,17,16,20,24.20
2021,04,17,16,21,24.20
2021,04,17,16,22,24.30
2021,04,17,16,23,24.40
2021,04,17,16,24,24.50
2021,04,17,16,25,24.60
2021,04,17,16,26,24.70
2021,04,17,16,27,24.70
2021,04,17,16,28,24.80
2021,04,17,16,29,24.80
2021,04,17,16,30,24.80
2021,04,17,16,31,24.90
2021,04,17,16,32,24.90
2021,04,17,16,33,24.90
2021,04,17,16,34,24.90
2021,04,17,16,35,24.90
2021,04,17,16,36,25.00
2021,04,17,16,37,25.00
2021,04,17,16,38,25.00
2021,04,17,16,39,24.90
2021,04,17,16,40,24.90
2021,04,17,16,41,24.80
2021,04,17,16,42,24.80
2021,04,17,16,43,24.80
2021,04,17,16,44,24.80
2021,04,17,16,45,24.80
2021,04,17,16,46,24.80
2021,04,17,16,47,24.80
2021,04,17,16,48,24.80
2021,04,17,16,49,24.80
2021,04,17,16,50,24.80
2021,04,17,16,51,24.80
2021,04,17,16,52,24.80
2021,04,17,16,53,24.90
2021,04,17,16,54,24.90
2021,04,17,16,55,24.90
2021,04,17,16,56,25.00
2021,04,17,16,57,25.00
2021,04,17,16,58,25.00
2021,04,17,16,59,25.00
2021,04,17,17,00,25.00
2021,04,17,17,01,25.00
2021,04,17,17,02,25.00
2021,04,17,17,03,24.90
2021,04,17,17,04,24.80
2021,04,17,17,05,24.80
2021,04,17,17,06,24.70
2021,04,17,17,07,24.70
2021,04,17,17,08,24.60
2021,04,17,17,09,24.50
2021,04,17,17,10,24.40
2021,04,17,17,11,24.30
2021,04,17,17,12,24.30
2021,04,17,17,13,24.30
2021,04,17,17,14,24.30
2021,04,17,17,15,24.30
2021,04,17,17,16,24.20
2021,04,17,17,17,24.20
2021,04,17,17,18,24.10
2021,04,17,17,19,24.00
2021,04,17,17,20,23.90
2021,04,17,17,21,23.80
2021,04,17,17,22,23.70
2021,04,17,17,23,23.70
2021,04,17,17,24,23.60
2021,04,17,17,25,23.50
2021,04,17,17,26,23.40
2021,04,17,17,27,23.30
2021,04,17,17,28,23.20
2021,04,17,17,29,23.20
2021,04,17,17,30,23.10
2021,04,17,17,31,23.10
2021,04,17,17,32,23.00
2021,04,17,17,33,22.90
2021,04,17,17,34,22.80
2021,04,17,17,35,22.80
2021,04,17,17,36,22.70
2021,04,17,17,37,22.60
2021,04,17,17,38,22.60
2021,04,17,17,39,22.60
2021,04,17,17,40,22.60
2021,04,17,17,41,22.60
2021,04,17,17,42,22.60
2021,04,17,17,43,22.70